This is the latest recevied weather packets stored in our database for station/object NUUKSIO. If no packets are shown the sender has not sent any weather packets the latest 10 day(s).
| Time | Temp. | Humidity | Pressure | Rain* | Wind** | Luminosity | Snow |
|---|---|---|---|---|---|---|---|
| 1777876031 | 12.22° C | 44% | 1004.3 hPa | 0 mm | - | - | - |
| 1777874830 | 11.11° C | 43% | 1004.7 hPa | 0 mm | - | - | - |
| 1777873631 | 10.56° C | 51% | 1004.8 hPa | 0 mm | - | - | - |
| 1777872431 | 9.44° C | 54% | 1005.1 hPa | 0 mm | - | - | - |
| 1777871231 | 8.33° C | 56% | 1005.3 hPa | 0 mm | - | - | - |
| 1777870030 | 8.33° C | 59% | 1005.5 hPa | 0 mm | - | - | - |
| 1777868831 | 7.22° C | 63% | 1005.7 hPa | 0 mm | - | - | - |
| 1777867630 | 6.67° C | 62% | 1005.9 hPa | 0 mm | - | - | - |
| 1777866430 | 5.56° C | 63% | 1006 hPa | 0 mm | - | - | - |
| 1777865231 | 5.56° C | 63% | 1006.1 hPa | 0 mm | - | - | - |
| 1777864030 | 5° C | 63% | 1006.2 hPa | 0 mm | - | - | - |
| 1777862830 | 5.56° C | 63% | 1006.2 hPa | 0 mm | - | - | - |
| 1777861631 | 5.56° C | 60% | 1006.4 hPa | 0 mm | - | - | - |
| 1777860430 | 6.11° C | 61% | 1006.6 hPa | 0 mm | - | - | - |
| 1777859231 | 6.67° C | 55% | 1006.8 hPa | 0 mm | - | - | - |
| 1777858030 | 7.22° C | 54% | 1006.8 hPa | 0 mm | - | - | - |
| 1777856831 | 7.78° C | 53% | 1007 hPa | 0 mm | - | - | - |
| 1777855630 | 8.33° C | 54% | 1006.8 hPa | 0 mm | - | - | - |
| 1777854431 | 8.89° C | 54% | 1007 hPa | 0 mm | - | - | - |
| 1777853230 | 9.44° C | 52% | 1007 hPa | 0 mm | - | - | - |
| 1777852030 | 9.44° C | 56% | 1007.1 hPa | 0 mm | - | - | - |
| 1777850830 | 10° C | 61% | 1007.1 hPa | 0 mm | - | - | - |
| 1777849630 | 10° C | 61% | 1007.2 hPa | 0 mm | - | - | - |
| 1777848430 | 10.56° C | 64% | 1007.3 hPa | 0 mm | - | - | - |
| 1777847230 | 10.56° C | 58% | 1007.3 hPa | 0 mm | - | - | - |
* Rain latest hour (hover to see other rain measurements)
** Current wind speed in m/s (hover to see current wind gust speed)